DECAYED

STARLINK-6057, 56815 (Decayed)

Orbit data source: Space-Track

STARLINK-6057, 56815 was a payload satellite owned by SpaceX/Seattle (US) in LEO that was launched on Wed, 31 May 2023 UTC via an FALCON 9 launch vehicle from the Air Force Western Test Range (AFWTR). Payload-class satellites include a variety of spacecraft equipped with specific instruments for various scientific and technological missions. These include communications satellites like Starlink; space stations such as the ISS; scientific satellites like the Hubble; Earth observation satellites from companies like Planet Labs, Umbra, and HawkEye 360; GPS; miniature CubeSats for education and research; and military/defense satellites.

Not visible in the next 10 days
Identifier
56815, 2023-078BA
Orbit
Decayed
Country
Flag of USUS
Related business
Manufacturer
SpaceX/Seattle
Mission
Decayed Commercial Communications
Bus & Motor
STARLINK, Unknown motor
Mass
305 kg wet, ~290 kg dry
Launch date (UTC)
2023-05-31 (3 years ago)
Launch vehicle
FALCON 9
Launch site
Air Force Western Test Range (AFWTR)
Object type
Payload
Rocket body
Debris
Shape & HBR
Box + 1 Pan, 10.1 m
Radar Cross Section
11.087 m², Large (>1 m²)

Expand to show TLE details & history
Last TLE update: 1 year ago

TLE from 1 year ago
0 STARLINK-6057
1 56815U 23078BA  25099.91576081  .09945753  44377-5  23520-3 0  9994
2 56815  69.9897  90.5630 0008813 277.2100 130.8923 16.45659849103329
Epoch: 2025-04-09T21:58Z
TLE epoch observation values (Epoch: 2025-04-09T21:58:41.733Z)
Latitude
44.56207°
Longitude
-56.61601°
Altitude
160.746 km
Speed
7.812 km/s
True Right ascension
07h 25m 48s
True Declination
44° 22' 28"
Sunlit
Object was in daylight at epoch
Visualization orbit readout
Latitude
Unknown
Longitude
Unknown
Altitude
Unknown
Speed
Unknown
Apparent Right ascension
Unknown
Apparent Declination
Unknown
Sunlit
N/A
Visualization observer readout
Local Sidereal Time
21:33:14
Azimuth
Unknown
Elevation
Unknown
Doppler factor
Unknown
Orbital elements
Apogee altitude
154.358 km
Perigee altitude
142.854 km
Semi-major axis
6,526.743 km
Eccentricity
0.00088
Inclination
69.9897°
RAAN
90.563°
Arg. of periapsis
277.21°
True anomaly
130.96859°
Mean anomaly
130.8923°
Eccentric anomaly
130.93045°
Mean motion
4.11622 °/min
Orbital period
87.46 mins
BSTAR
0.0002352
Loading maneuver chart data...
Computing Atmospheric mass density...
Loading historical data...
Loading historical data...
Loading historical data...
Loading historical data...
Loading historical data...
Loading historical data...
Loading historical data...

Documentation

Showing up to 5 results
|